Time,TemperatureF,DewpointF,PressureIn,WindDirection,WindDirectionDegrees,WindSpeedMPH,WindSpeedGustMPH,Humidity,HourlyPrecipIn,Conditions,Clouds,dailyrainin,SolarRadiationWatts/m^2,SoftwareType,DateUTC
2013-01-15 00:00:00,4.7,-2.0,30.72,WSW,248,0.0,1.0,73,0.00,,,0.00,0,LWC V2.00 B727,2013-01-15 07:00:00,
2013-01-15 00:10:00,2.3,-4.3,30.71,WSW,248,0.0,2.0,73,0.00,,,0.00,0,LWC V2.00 B727,2013-01-15 07:10:00,
2013-01-15 00:20:00,2.3,-4.3,30.71,WSW,248,0.0,2.0,73,0.00,,,0.00,0,LWC V2.00 B727,2013-01-15 07:20:00,
2013-01-15 00:30:00,2.3,-4.3,30.71,WSW,248,0.0,2.0,73,0.00,,,0.00,0,LWC V2.00 B727,2013-01-15 07:30:00,
2013-01-15 00:40:00,1.7,-3.3,30.71,SW,225,0.0,1.0,79,0.00,,,0.00,0,LWC V2.00 B727,2013-01-15 07:40:00,
2013-01-15 00:50:00,1.7,-3.3,30.71,SW,225,0.0,1.0,79,0.00,,,0.00,0,LWC V2.00 B727,2013-01-15 07:50:00,
2013-01-15 01:00:00,1.7,-3.3,30.71,SW,225,0.0,1.0,79,0.00,,,0.00,0,LWC V2.00 B727,2013-01-15 08:00:00,
2013-01-15 01:10:00,2.9,-1.8,30.71,SW,225,0.0,1.0,80,0.00,,,0.00,0,LWC V2.00 B727,2013-01-15 08:10:00,
2013-01-15 01:20:00,2.9,-1.8,30.71,SW,225,0.0,1.0,80,0.00,,,0.00,0,LWC V2.00 B727,2013-01-15 08:20:00,
2013-01-15 01:30:00,2.9,-1.8,30.71,SW,225,0.0,1.0,80,0.00,,,0.00,0,LWC V2.00 B727,2013-01-15 08:30:00,
2013-01-15 01:40:00,5.5,1.5,30.72,SW,225,0.0,3.0,83,0.00,,,0.00,0,LWC V2.00 B727,2013-01-15 08:40:00,
2013-01-15 01:50:00,5.5,1.5,30.72,SW,225,0.0,3.0,83,0.00,,,0.00,0,LWC V2.00 B727,2013-01-15 08:50:00,
2013-01-15 02:00:00,5.5,1.5,30.72,SW,225,0.0,3.0,83,0.00,,,0.00,0,LWC V2.00 B727,2013-01-15 09:00:00,
2013-01-15 02:10:00,6.3,2.0,30.71,SW,225,0.0,1.0,82,0.00,,,0.00,0,LWC V2.00 B727,2013-01-15 09:10:00,
2013-01-15 02:20:00,6.3,2.0,30.71,SW,225,0.0,1.0,82,0.00,,,0.00,0,LWC V2.00 B727,2013-01-15 09:20:00,
2013-01-15 02:30:00,6.3,2.0,30.71,SW,225,0.0,1.0,82,0.00,,,0.00,0,LWC V2.00 B727,2013-01-15 09:30:00,
2013-01-15 02:40:00,4.3,-1.6,30.72,SW,225,0.0,1.0,76,0.00,,,0.00,0,LWC V2.00 B727,2013-01-15 09:40:00,
2013-01-15 02:50:00,4.3,-1.6,30.72,SW,225,0.0,1.0,76,0.00,,,0.00,0,LWC V2.00 B727,2013-01-15 09:50:00,
2013-01-15 03:00:00,4.3,-1.6,30.72,SW,225,0.0,1.0,76,0.00,,,0.00,0,LWC V2.00 B727,2013-01-15 10:00:00,
2013-01-15 03:10:00,1.8,-4.0,30.72,SW,225,0.0,2.0,76,0.00,,,0.00,0,LWC V2.00 B727,2013-01-15 10:10:00,
2013-01-15 03:20:00,1.8,-4.0,30.72,SW,225,0.0,2.0,76,0.00,,,0.00,0,LWC V2.00 B727,2013-01-15 10:20:00,
2013-01-15 03:30:00,1.8,-4.0,30.72,SW,225,0.0,2.0,76,0.00,,,0.00,0,LWC V2.00 B727,2013-01-15 10:30:00,
2013-01-15 03:40:00,1.9,-4.2,30.73,SW,225,1.0,4.0,75,0.00,,,0.00,0,LWC V2.00 B727,2013-01-15 10:40:00,
2013-01-15 03:50:00,1.9,-4.2,30.73,SW,225,1.0,4.0,75,0.00,,,0.00,0,LWC V2.00 B727,2013-01-15 10:50:00,
2013-01-15 04:00:00,1.9,-4.2,30.73,SW,225,1.0,4.0,75,0.00,,,0.00,0,LWC V2.00 B727,2013-01-15 11:00:00,
2013-01-15 04:10:00,0.4,-6.5,30.74,SSE,158,0.0,2.0,72,0.00,,,0.00,0,LWC V2.00 B727,2013-01-15 11:10:00,
2013-01-15 04:20:00,0.4,-6.5,30.74,SSE,158,0.0,2.0,72,0.00,,,0.00,0,LWC V2.00 B727,2013-01-15 11:20:00,
2013-01-15 04:30:00,0.4,-6.5,30.74,SSE,158,0.0,2.0,72,0.00,,,0.00,0,LWC V2.00 B727,2013-01-15 11:30:00,
2013-01-15 04:40:00,-1.3,-7.5,30.74,SSE,158,0.0,3.0,74,0.00,,,0.00,0,LWC V2.00 B727,2013-01-15 11:40:00,
2013-01-15 04:50:00,-1.3,-7.5,30.74,SSE,158,0.0,3.0,74,0.00,,,0.00,0,LWC V2.00 B727,2013-01-15 11:50:00,
2013-01-15 05:00:00,-1.3,-7.5,30.74,SSE,158,0.0,3.0,74,0.00,,,0.00,0,LWC V2.00 B727,2013-01-15 12:00:00,
2013-01-15 05:10:00,-3.0,-9.7,30.73,SSE,158,0.0,1.0,72,0.00,,,0.00,0,LWC V2.00 B727,2013-01-15 12:10:00,
2013-01-15 05:20:00,-3.0,-9.7,30.73,SSE,158,0.0,1.0,72,0.00,,,0.00,0,LWC V2.00 B727,2013-01-15 12:20:00,
2013-01-15 05:30:00,-3.0,-9.7,30.73,SSE,158,0.0,1.0,72,0.00,,,0.00,0,LWC V2.00 B727,2013-01-15 12:30:00,
2013-01-15 05:40:00,-4.1,-10.0,30.73,SSE,158,1.0,4.0,75,0.00,,,0.00,0,LWC V2.00 B727,2013-01-15 12:40:00,
2013-01-15 05:50:00,-4.1,-10.0,30.73,SSE,158,1.0,4.0,75,0.00,,,0.00,0,LWC V2.00 B727,2013-01-15 12:50:00,
2013-01-15 06:00:00,-4.1,-10.0,30.73,SSE,158,1.0,4.0,75,0.00,,,0.00,0,LWC V2.00 B727,2013-01-15 13:00:00,
2013-01-15 06:10:00,-4.3,-10.2,30.74,South,180,1.0,4.0,75,0.00,,,0.00,0,LWC V2.00 B727,2013-01-15 13:10:00,
2013-01-15 06:20:00,-4.3,-10.2,30.74,South,180,1.0,4.0,75,0.00,,,0.00,0,LWC V2.00 B727,2013-01-15 13:20:00,
2013-01-15 06:30:00,-4.3,-10.2,30.74,South,180,1.0,4.0,75,0.00,,,0.00,0,LWC V2.00 B727,2013-01-15 13:30:00,
2013-01-15 06:40:00,-5.1,-11.2,30.76,SSE,158,0.0,2.0,74,0.00,,,0.00,0,LWC V2.00 B727,2013-01-15 13:40:00,
2013-01-15 06:50:00,-5.1,-11.2,30.76,SSE,158,0.0,2.0,74,0.00,,,0.00,0,LWC V2.00 B727,2013-01-15 13:50:00,
2013-01-15 07:00:00,-5.1,-11.2,30.76,SSE,158,0.0,2.0,74,0.00,,,0.00,0,LWC V2.00 B727,2013-01-15 14:00:00,
2013-01-15 07:10:00,-6.3,-12.1,30.78,SSE,158,1.0,4.0,75,0.00,,,0.00,0,LWC V2.00 B727,2013-01-15 14:10:00,
2013-01-15 07:20:00,-6.3,-12.1,30.78,SSE,158,1.0,4.0,75,0.00,,,0.00,0,LWC V2.00 B727,2013-01-15 14:20:00,
2013-01-15 07:30:00,-6.3,-12.1,30.78,SSE,158,1.0,4.0,75,0.00,,,0.00,0,LWC V2.00 B727,2013-01-15 14:30:00,
2013-01-15 07:40:00,-5.8,-11.1,30.78,South,180,1.0,4.0,77,0.00,,,0.00,1,LWC V2.00 B727,2013-01-15 14:40:00,
2013-01-15 07:50:00,-5.8,-11.1,30.78,South,180,1.0,4.0,77,0.00,,,0.00,1,LWC V2.00 B727,2013-01-15 14:50:00,
2013-01-15 08:00:00,-5.8,-11.1,30.78,South,180,1.0,4.0,77,0.00,,,0.00,1,LWC V2.00 B727,2013-01-15 15:00:00,
2013-01-15 08:10:00,-4.6,-10.2,30.80,SSE,158,1.0,3.0,76,0.00,,,0.00,48,LWC V2.00 B727,2013-01-15 15:10:00,
2013-01-15 08:20:00,-4.6,-10.2,30.80,SSE,158,1.0,3.0,76,0.00,,,0.00,48,LWC V2.00 B727,2013-01-15 15:20:00,
2013-01-15 08:30:00,-4.6,-10.2,30.80,SSE,158,1.0,3.0,76,0.00,,,0.00,48,LWC V2.00 B727,2013-01-15 15:30:00,
2013-01-15 08:40:00,-3.5,-9.4,30.83,SSE,158,0.0,2.0,75,0.00,,,0.00,131,LWC V2.00 B727,2013-01-15 15:40:00,
2013-01-15 08:50:00,-3.5,-9.4,30.83,SSE,158,0.0,2.0,75,0.00,,,0.00,131,LWC V2.00 B727,2013-01-15 15:50:00,
2013-01-15 09:00:00,-3.5,-9.4,30.83,SSE,158,0.0,2.0,75,0.00,,,0.00,131,LWC V2.00 B727,2013-01-15 16:00:00,
2013-01-15 09:10:00,-0.6,-5.8,30.85,SSE,158,0.0,1.0,78,0.00,,,0.00,170,LWC V2.00 B727,2013-01-15 16:10:00,
2013-01-15 09:20:00,-0.6,-5.8,30.85,SSE,158,0.0,1.0,78,0.00,,,0.00,170,LWC V2.00 B727,2013-01-15 16:20:00,
2013-01-15 09:40:00,4.2,-2.2,30.86,SSE,161,0.0,0.0,74,0.00,,,0.01,227,LWC V2.00 B727,2013-01-15 16:40:00,
2013-01-15 09:45:00,4.8,-1.6,30.86,SSE,161,0.0,0.0,74,0.00,,,0.01,236,LWC V2.00 B727,2013-01-15 16:45:00,
2013-01-15 09:50:00,5.3,-1.2,30.87,SSE,161,0.0,0.0,74,0.00,,,0.01,239,LWC V2.00 B727,2013-01-15 16:50:00,
2013-01-15 09:55:00,5.9,-0.9,30.86,SSE,161,0.0,0.0,73,0.00,,,0.01,253,LWC V2.00 B727,2013-01-15 16:55:00,
2013-01-15 10:00:00,6.5,-0.3,30.86,SSE,161,0.0,0.0,73,0.00,,,0.01,218,LWC V2.00 B727,2013-01-15 17:00:00,
2013-01-15 10:05:00,7.2,0.1,30.87,SSE,160,0.0,0.0,72,0.00,,,0.01,237,LWC V2.00 B727,2013-01-15 17:05:00,
2013-01-15 10:10:00,7.9,0.5,30.87,SSE,160,0.0,1.0,71,0.00,,,0.01,251,LWC V2.00 B727,2013-01-15 17:10:00,
2013-01-15 10:15:00,8.6,1.2,30.87,SSE,157,2.0,2.0,71,0.00,,,0.01,258,LWC V2.00 B727,2013-01-15 17:15:00,
2013-01-15 10:20:00,9.3,1.8,30.87,ESE,102,2.0,3.0,71,0.00,,,0.02,267,LWC V2.00 B727,2013-01-15 17:20:00,
2013-01-15 10:25:00,9.9,2.4,30.88,NE,36,1.0,3.0,71,0.00,,,0.02,290,LWC V2.00 B727,2013-01-15 17:25:00,
2013-01-15 10:30:00,10.5,3.0,30.88,NE,36,3.0,3.0,71,0.00,,,0.02,302,LWC V2.00 B727,2013-01-15 17:30:00,
2013-01-15 10:35:00,10.9,3.1,30.88,WSW,239,3.0,7.0,70,0.00,,,0.02,410,LWC V2.00 B727,2013-01-15 17:35:00,
2013-01-15 10:40:00,11.2,2.7,30.88,WSW,241,1.0,4.0,68,0.00,,,0.02,420,LWC V2.00 B727,2013-01-15 17:40:00,
2013-01-15 10:45:00,11.5,3.0,30.88,WSW,241,1.0,4.0,68,0.00,,,0.02,429,LWC V2.00 B727,2013-01-15 17:45:00,
2013-01-15 10:50:00,11.9,2.8,30.88,West,270,1.0,3.0,66,0.00,,,0.02,438,LWC V2.00 B727,2013-01-15 17:50:00,
2013-01-15 10:55:00,12.3,2.8,30.87,WSW,253,2.0,6.0,65,0.00,,,0.02,446,LWC V2.00 B727,2013-01-15 17:55:00,
2013-01-15 11:00:00,12.8,3.3,30.87,SW,217,0.0,5.0,65,0.00,,,0.02,454,LWC V2.00 B727,2013-01-15 18:00:00,
2013-01-15 11:05:00,13.1,2.6,30.86,WSW,249,3.0,6.0,62,0.00,,,0.02,462,LWC V2.00 B727,2013-01-15 18:05:00,
2013-01-15 11:10:00,13.5,1.9,30.86,SW,229,0.0,4.0,59,0.00,,,0.02,469,LWC V2.00 B727,2013-01-15 18:10:00,
2013-01-15 11:15:00,14.0,1.6,30.86,SW,229,2.0,4.0,57,0.00,,,0.02,469,LWC V2.00 B727,2013-01-15 18:15:00,
2013-01-15 11:20:00,14.3,1.5,30.86,SSW,210,1.0,3.0,56,0.00,,,0.02,478,LWC V2.00 B727,2013-01-15 18:20:00,
2013-01-15 11:25:00,14.8,1.6,30.85,SW,219,1.0,6.0,55,0.00,,,0.02,489,LWC V2.00 B727,2013-01-15 18:25:00,
2013-01-15 11:30:00,14.9,1.7,30.86,South,186,2.0,2.0,55,0.00,,,0.02,494,LWC V2.00 B727,2013-01-15 18:30:00,
2013-01-15 11:35:00,15.0,1.8,30.86,SSW,200,0.0,5.0,55,0.00,,,0.02,499,LWC V2.00 B727,2013-01-15 18:35:00,
2013-01-15 11:40:00,15.2,1.2,30.85,SSE,165,1.0,6.0,53,0.00,,,0.02,515,LWC V2.00 B727,2013-01-15 18:40:00,
2013-01-15 11:45:00,15.6,1.6,30.86,SSE,167,0.0,4.0,53,0.00,,,0.02,524,LWC V2.00 B727,2013-01-15 18:45:00,
2013-01-15 11:50:00,16.4,2.7,30.86,South,190,0.0,4.0,54,0.00,,,0.02,555,LWC V2.00 B727,2013-01-15 18:50:00,
2013-01-15 11:55:00,16.4,1.9,30.86,SSW,213,2.0,4.0,52,0.00,,,0.02,561,LWC V2.00 B727,2013-01-15 18:55:00,
2013-01-15 12:00:00,16.3,1.8,30.86,South,178,1.0,3.0,52,0.00,,,0.02,559,LWC V2.00 B727,2013-01-15 19:00:00,
2013-01-15 12:05:00,16.7,2.6,30.86,South,190,0.0,2.0,53,0.00,,,0.02,559,LWC V2.00 B727,2013-01-15 19:05:00,
2013-01-15 12:10:00,17.2,2.2,30.85,South,190,0.0,0.0,51,0.00,,,0.02,513,LWC V2.00 B727,2013-01-15 19:10:00,
2013-01-15 12:15:00,17.5,2.9,30.85,South,190,0.0,0.0,52,0.00,,,0.02,633,LWC V2.00 B727,2013-01-15 19:15:00,
2013-01-15 12:20:00,17.6,2.2,30.85,South,190,0.0,0.0,50,0.00,,,0.03,747,LWC V2.00 B727,2013-01-15 19:20:00,
2013-01-15 12:25:00,18.0,2.5,30.85,South,190,0.0,0.0,50,0.00,,,0.03,559,LWC V2.00 B727,2013-01-15 19:25:00,
2013-01-15 12:30:00,18.1,2.2,30.85,South,190,1.0,2.0,49,0.00,,,0.03,701,LWC V2.00 B727,2013-01-15 19:30:00,
2013-01-15 12:35:00,18.5,2.6,30.85,South,190,1.0,1.0,49,0.00,,,0.03,642,LWC V2.00 B727,2013-01-15 19:35:00,
2013-01-15 12:40:00,18.2,2.3,30.85,South,190,0.0,0.0,49,0.00,,,0.03,693,LWC V2.00 B727,2013-01-15 19:40:00,
2013-01-15 12:45:00,18.8,2.4,30.84,South,190,0.0,0.0,48,0.00,,,0.03,689,LWC V2.00 B727,2013-01-15 19:45:00,
2013-01-15 12:50:00,18.7,2.3,30.84,South,190,0.0,0.0,48,0.00,,,0.03,749,LWC V2.00 B727,2013-01-15 19:50:00,
2013-01-15 12:55:00,18.6,1.8,30.84,South,190,0.0,0.0,47,0.00,,,0.03,441,LWC V2.00 B727,2013-01-15 19:55:00,
2013-01-15 13:00:00,18.6,1.3,30.84,South,190,0.0,1.0,46,0.00,,,0.03,680,LWC V2.00 B727,2013-01-15 20:00:00,
2013-01-15 13:05:00,18.7,1.4,30.83,South,188,1.0,5.0,46,0.00,,,0.03,664,LWC V2.00 B727,2013-01-15 20:05:00,
2013-01-15 13:10:00,19.1,1.8,30.83,South,180,0.0,2.0,46,0.00,,,0.03,670,LWC V2.00 B727,2013-01-15 20:10:00,
2013-01-15 13:15:00,19.7,1.8,30.84,South,180,0.0,1.0,45,0.00,,,0.03,657,LWC V2.00 B727,2013-01-15 20:15:00,
2013-01-15 13:20:00,19.9,1.5,30.84,South,180,0.0,1.0,44,0.00,,,0.03,657,LWC V2.00 B727,2013-01-15 20:20:00,
2013-01-15 13:25:00,19.9,1.5,30.84,South,181,0.0,0.0,44,0.00,,,0.03,652,LWC V2.00 B727,2013-01-15 20:25:00,
2013-01-15 13:30:00,19.9,1.5,30.84,South,180,0.0,0.0,44,0.00,,,0.03,645,LWC V2.00 B727,2013-01-15 20:30:00,
2013-01-15 13:35:00,19.8,0.5,30.84,South,184,6.0,6.0,42,0.00,,,0.03,636,LWC V2.00 B727,2013-01-15 20:35:00,
2013-01-15 13:40:00,19.9,0.0,30.84,South,185,3.0,5.0,41,0.00,,,0.03,628,LWC V2.00 B727,2013-01-15 20:40:00,
2013-01-15 13:45:00,19.7,-0.7,30.84,WSW,244,2.0,7.0,40,0.00,,,0.03,619,LWC V2.00 B727,2013-01-15 20:45:00,
2013-01-15 13:50:00,19.7,-0.7,30.85,NNE,19,2.0,5.0,40,0.00,,,0.03,606,LWC V2.00 B727,2013-01-15 20:50:00,
2013-01-15 13:55:00,19.4,-0.4,30.85,West,279,0.0,3.0,41,0.00,,,0.03,598,LWC V2.00 B727,2013-01-15 20:55:00,
2013-01-15 14:00:00,19.6,-0.2,30.85,North,355,1.0,3.0,41,0.00,,,0.03,585,LWC V2.00 B727,2013-01-15 21:00:00,
2013-01-15 14:05:00,19.7,-0.1,30.84,WSW,237,1.0,1.0,41,0.00,,,0.03,578,LWC V2.00 B727,2013-01-15 21:05:00,
2013-01-15 14:10:00,19.7,-0.7,30.85,WSW,245,4.0,6.0,40,0.00,,,0.03,570,LWC V2.00 B727,2013-01-15 21:10:00,
2013-01-15 14:15:00,19.7,-0.7,30.86,WSW,245,2.0,3.0,40,0.00,,,0.03,557,LWC V2.00 B727,2013-01-15 21:15:00,
2013-01-15 14:20:00,19.5,-1.4,30.87,South,187,3.0,7.0,39,0.00,,,0.03,547,LWC V2.00 B727,2013-01-15 21:20:00,
2013-01-15 14:25:00,19.3,-1.0,30.87,SSW,194,0.0,3.0,40,0.00,,,0.03,538,LWC V2.00 B727,2013-01-15 21:25:00,
2013-01-15 14:30:00,19.5,-0.8,30.86,SW,224,3.0,5.0,40,0.00,,,0.03,540,LWC V2.00 B727,2013-01-15 21:30:00,
2013-01-15 14:35:00,19.7,-1.2,30.87,South,191,0.0,2.0,39,0.00,,,0.03,564,LWC V2.00 B727,2013-01-15 21:35:00,
2013-01-15 14:40:00,20.0,-0.9,30.87,SSE,153,0.0,2.0,39,0.00,,,0.03,461,LWC V2.00 B727,2013-01-15 21:40:00,
2013-01-15 14:45:00,20.1,0.2,30.87,SE,138,0.0,2.0,41,0.00,,,0.03,506,LWC V2.00 B727,2013-01-15 21:45:00,
2013-01-15 14:50:00,20.0,-0.4,30.87,SE,136,0.0,1.0,40,0.00,,,0.03,471,LWC V2.00 B727,2013-01-15 21:50:00,
2013-01-15 14:55:00,20.0,-0.9,30.88,SE,136,0.0,0.0,39,0.00,,,0.03,466,LWC V2.00 B727,2013-01-15 21:55:00,
2013-01-15 15:00:00,20.4,0.5,30.88,SE,136,0.0,1.0,41,0.00,,,0.03,454,LWC V2.00 B727,2013-01-15 22:00:00,
2013-01-15 15:05:00,20.4,0.0,30.88,SE,136,0.0,0.0,40,0.00,,,0.03,439,LWC V2.00 B727,2013-01-15 22:05:00,
2013-01-15 15:10:00,20.5,0.1,30.88,SE,129,2.0,2.0,40,0.00,,,0.03,432,LWC V2.00 B727,2013-01-15 22:10:00,
2013-01-15 15:15:00,20.3,-0.1,30.89,SE,133,2.0,2.0,40,0.00,,,0.03,429,LWC V2.00 B727,2013-01-15 22:15:00,
2013-01-15 15:20:00,20.2,-0.2,30.89,South,186,3.0,6.0,40,0.00,,,0.03,425,LWC V2.00 B727,2013-01-15 22:20:00,
2013-01-15 15:25:00,20.0,-0.9,30.89,SSW,194,0.0,5.0,39,0.00,,,0.03,432,LWC V2.00 B727,2013-01-15 22:25:00,
2013-01-15 15:30:00,19.7,-1.2,30.89,SSW,194,2.0,2.0,39,0.00,,,0.03,207,LWC V2.00 B727,2013-01-15 22:30:00,
2013-01-15 15:35:00,19.3,-0.5,30.90,SSW,194,0.0,3.0,41,0.00,,,0.03,378,LWC V2.00 B727,2013-01-15 22:35:00,
2013-01-15 15:40:00,19.1,-1.2,30.90,SSW,192,1.0,2.0,40,0.00,,,0.03,70,LWC V2.00 B727,2013-01-15 22:40:00,
2013-01-15 15:45:00,18.9,-1.9,30.91,SSW,197,2.0,4.0,39,0.00,,,0.03,74,LWC V2.00 B727,2013-01-15 22:45:00,
2013-01-15 15:50:00,18.2,-2.0,30.91,NNE,24,3.0,4.0,40,0.00,,,0.03,139,LWC V2.00 B727,2013-01-15 22:50:00,
2013-01-15 15:55:00,17.7,-2.5,30.91,NNE,22,0.0,3.0,40,0.00,,,0.03,62,LWC V2.00 B727,2013-01-15 22:55:00,
2013-01-15 16:00:00,17.3,-2.8,30.91,NNE,19,0.0,1.0,40,0.00,,,0.03,44,LWC V2.00 B727,2013-01-15 23:00:00,
2013-01-15 16:05:00,16.9,-3.2,30.91,NNE,18,0.0,1.0,40,0.00,,,0.03,62,LWC V2.00 B727,2013-01-15 23:05:00,
2013-01-15 16:10:00,16.5,-3.0,30.91,NNE,18,0.0,1.0,41,0.00,,,0.03,40,LWC V2.00 B727,2013-01-15 23:10:00,
2013-01-15 16:15:00,16.2,-3.3,30.92,NW,304,0.0,2.0,41,0.00,,,0.03,35,LWC V2.00 B727,2013-01-15 23:15:00,
2013-01-15 16:20:00,15.8,-3.2,30.92,West,260,0.0,0.0,42,0.00,,,0.03,33,LWC V2.00 B727,2013-01-15 23:20:00,
2013-01-15 16:25:00,15.4,-3.5,30.92,WSW,254,0.0,1.0,42,0.00,,,0.03,40,LWC V2.00 B727,2013-01-15 23:25:00,
2013-01-15 16:30:00,14.9,-3.5,30.92,WSW,253,0.0,2.0,43,0.00,,,0.03,25,LWC V2.00 B727,2013-01-15 23:30:00,
2013-01-15 16:35:00,14.3,-4.1,30.92,SW,235,0.0,2.0,43,0.00,,,0.03,30,LWC V2.00 B727,2013-01-15 23:35:00,
2013-01-15 16:40:00,13.9,-3.9,30.93,SW,234,2.0,2.0,44,0.00,,,0.03,26,LWC V2.00 B727,2013-01-15 23:40:00,
2013-01-15 16:45:00,13.6,-3.8,30.93,SW,234,1.0,1.0,45,0.00,,,0.03,18,LWC V2.00 B727,2013-01-15 23:45:00,
2013-01-15 16:50:00,13.2,-3.7,30.93,SSW,207,2.0,2.0,46,0.00,,,0.03,18,LWC V2.00 B727,2013-01-15 23:50:00,
2013-01-15 16:55:00,12.8,-3.6,30.94,South,181,2.0,4.0,47,0.00,,,0.03,14,LWC V2.00 B727,2013-01-15 23:55:00,
2013-01-15 17:00:00,12.6,-3.8,30.94,South,181,0.0,2.0,47,0.00,,,0.03,12,LWC V2.00 B727,2013-01-16 00:00:00,
2013-01-15 17:05:00,12.4,-3.9,30.94,South,180,2.0,2.0,47,0.00,,,0.03,9,LWC V2.00 B727,2013-01-16 00:05:00,
2013-01-15 17:10:00,12.3,-3.6,30.94,South,181,0.0,1.0,48,0.00,,,0.03,5,LWC V2.00 B727,2013-01-16 00:10:00,
2013-01-15 17:16:00,12.2,-3.7,30.95,South,180,0.0,0.0,48,0.00,,,0.03,0,LWC V2.00 B727,2013-01-16 00:16:00,
2013-01-15 17:21:00,12.1,-3.8,30.95,South,180,0.0,0.0,48,0.00,,,0.03,0,LWC V2.00 B727,2013-01-16 00:21:00,
2013-01-15 17:26:00,12.1,-3.4,30.95,South,180,0.0,0.0,49,0.00,,,0.03,0,LWC V2.00 B727,2013-01-16 00:26:00,
2013-01-15 17:31:00,12.0,-3.5,30.95,South,181,1.0,1.0,49,0.00,,,0.03,0,LWC V2.00 B727,2013-01-16 00:31:00,
2013-01-15 17:36:00,11.9,-3.1,30.95,South,181,0.0,0.0,50,0.00,,,0.03,0,LWC V2.00 B727,2013-01-16 00:36:00,
2013-01-15 17:41:00,11.8,-3.2,30.96,South,180,0.0,0.0,50,0.00,,,0.03,0,LWC V2.00 B727,2013-01-16 00:41:00,
2013-01-15 17:46:00,11.7,-3.3,30.96,South,181,0.0,1.0,50,0.00,,,0.03,0,LWC V2.00 B727,2013-01-16 00:46:00,
2013-01-15 17:51:00,11.7,-2.9,30.95,South,181,0.0,0.0,51,0.00,,,0.03,0,LWC V2.00 B727,2013-01-16 00:51:00,
2013-01-15 17:56:00,11.6,-2.6,30.96,South,180,0.0,1.0,52,0.00,,,0.03,0,LWC V2.00 B727,2013-01-16 00:56:00,
2013-01-15 18:01:00,11.5,-2.3,30.96,South,180,0.0,0.0,53,0.00,,,0.03,0,LWC V2.00 B727,2013-01-16 01:01:00,
2013-01-15 18:06:00,11.4,-2.8,30.96,South,181,1.0,1.0,52,0.00,,,0.03,0,LWC V2.00 B727,2013-01-16 01:06:00,
2013-01-15 18:11:00,11.2,-3.0,30.96,South,180,0.0,0.0,52,0.00,,,0.03,0,LWC V2.00 B727,2013-01-16 01:11:00,
2013-01-15 18:16:00,11.0,-2.7,30.96,South,181,0.0,1.0,53,0.00,,,0.03,0,LWC V2.00 B727,2013-01-16 01:16:00,
2013-01-15 18:21:00,10.8,-2.5,30.97,South,181,0.0,0.0,54,0.00,,,0.03,0,LWC V2.00 B727,2013-01-16 01:21:00,
2013-01-15 18:26:00,10.6,-2.7,30.97,South,180,0.0,0.0,54,0.00,,,0.03,0,LWC V2.00 B727,2013-01-16 01:26:00,
2013-01-15 18:31:00,10.3,-3.0,30.97,South,180,0.0,0.0,54,0.00,,,0.03,0,LWC V2.00 B727,2013-01-16 01:31:00,
2013-01-15 18:36:00,9.9,-3.4,30.97,South,181,0.0,0.0,54,0.00,,,0.03,0,LWC V2.00 B727,2013-01-16 01:36:00,
2013-01-15 18:41:00,9.5,-3.8,30.98,South,181,0.0,0.0,54,0.00,,,0.03,0,LWC V2.00 B727,2013-01-16 01:41:00,
2013-01-15 18:46:00,9.0,-4.2,30.98,South,181,0.0,0.0,54,0.00,,,0.03,0,LWC V2.00 B727,2013-01-16 01:46:00,
2013-01-15 18:51:00,8.5,-4.3,30.99,South,180,0.0,1.0,55,0.00,,,0.03,0,LWC V2.00 B727,2013-01-16 01:51:00,
2013-01-15 18:56:00,7.8,-4.6,30.99,South,181,0.0,1.0,56,0.00,,,0.03,0,LWC V2.00 B727,2013-01-16 01:56:00,
2013-01-15 19:01:00,7.3,-4.3,30.99,South,180,2.0,2.0,58,0.00,,,0.03,0,LWC V2.00 B727,2013-01-16 02:01:00,
2013-01-15 19:06:00,6.8,-4.5,30.99,South,179,1.0,2.0,59,0.00,,,0.03,0,LWC V2.00 B727,2013-01-16 02:06:00,
2013-01-15 19:11:00,6.5,-4.4,30.99,South,173,1.0,2.0,60,0.00,,,0.03,0,LWC V2.00 B727,2013-01-16 02:11:00,
2013-01-15 19:16:00,6.3,-4.6,31.00,South,171,1.0,2.0,60,0.00,,,0.03,0,LWC V2.00 B727,2013-01-16 02:16:00,
2013-01-15 19:21:00,6.2,-4.7,31.00,South,171,0.0,1.0,60,0.00,,,0.03,0,LWC V2.00 B727,2013-01-16 02:21:00,
2013-01-15 19:26:00,6.0,-4.9,31.00,South,171,0.0,1.0,60,0.00,,,0.03,0,LWC V2.00 B727,2013-01-16 02:26:00,
2013-01-15 19:31:00,5.8,-5.1,31.01,South,171,0.0,1.0,60,0.00,,,0.03,0,LWC V2.00 B727,2013-01-16 02:31:00,
2013-01-15 19:36:00,5.7,-5.1,31.01,South,171,2.0,2.0,60,0.00,,,0.03,0,LWC V2.00 B727,2013-01-16 02:36:00,
2013-01-15 19:41:00,5.5,-5.3,31.01,South,171,0.0,1.0,60,0.00,,,0.03,0,LWC V2.00 B727,2013-01-16 02:41:00,
2013-01-15 19:46:00,5.4,-5.4,31.02,SSE,155,0.0,1.0,60,0.00,,,0.03,0,LWC V2.00 B727,2013-01-16 02:46:00,
2013-01-15 19:51:00,5.2,-5.3,31.02,SSE,155,1.0,2.0,61,0.00,,,0.03,0,LWC V2.00 B727,2013-01-16 02:51:00,
2013-01-15 19:56:00,5.0,-5.1,31.02,SSE,164,2.0,3.0,62,0.00,,,0.03,0,LWC V2.00 B727,2013-01-16 02:56:00,
2013-01-15 20:01:00,4.9,-5.2,31.02,SSE,163,2.0,4.0,62,0.00,,,0.03,0,LWC V2.00 B727,2013-01-16 03:01:00,
2013-01-15 20:06:00,4.8,-5.0,31.02,SSE,167,2.0,5.0,63,0.00,,,0.03,0,LWC V2.00 B727,2013-01-16 03:06:00,
2013-01-15 20:11:00,4.8,-5.3,31.01,SSE,167,2.0,3.0,62,0.00,,,0.03,0,LWC V2.00 B727,2013-01-16 03:11:00,
2013-01-15 20:16:00,4.6,-5.2,31.01,SSE,159,1.0,4.0,63,0.00,,,0.03,0,LWC V2.00 B727,2013-01-16 03:16:00,
2013-01-15 20:21:00,4.5,-5.6,31.01,SSE,159,0.0,1.0,62,0.00,,,0.03,0,LWC V2.00 B727,2013-01-16 03:21:00,
2013-01-15 20:26:00,4.2,-5.6,31.02,SSE,159,1.0,2.0,63,0.00,,,0.03,0,LWC V2.00 B727,2013-01-16 03:26:00,
2013-01-15 20:31:00,4.1,-5.7,31.02,SSE,161,4.0,4.0,63,0.00,,,0.03,0,LWC V2.00 B727,2013-01-16 03:31:00,
2013-01-15 20:36:00,3.9,-5.5,31.02,SSE,160,1.0,3.0,64,0.00,,,0.03,0,LWC V2.00 B727,2013-01-16 03:36:00,
2013-01-15 20:41:00,4.0,-5.1,31.02,SSE,163,1.0,4.0,65,0.00,,,0.03,0,LWC V2.00 B727,2013-01-16 03:41:00,
2013-01-15 20:46:00,4.2,-4.9,31.02,SSE,163,2.0,3.0,65,0.00,,,0.03,0,LWC V2.00 B727,2013-01-16 03:46:00,
2013-01-15 20:51:00,4.5,-4.6,31.02,SSE,164,0.0,2.0,65,0.00,,,0.03,0,LWC V2.00 B727,2013-01-16 03:51:00,
2013-01-15 20:56:00,4.6,-4.9,31.03,SSE,163,0.0,1.0,64,0.00,,,0.03,0,LWC V2.00 B727,2013-01-16 03:56:00,
2013-01-15 21:01:00,4.6,-4.9,31.03,SSE,164,0.0,3.0,64,0.00,,,0.03,0,LWC V2.00 B727,2013-01-16 04:01:00,
2013-01-15 21:06:00,4.6,-4.9,31.03,SSE,163,1.0,2.0,64,0.00,,,0.03,0,LWC V2.00 B727,2013-01-16 04:06:00,
2013-01-15 21:11:00,4.5,-5.0,31.02,SSE,163,0.0,1.0,64,0.00,,,0.03,0,LWC V2.00 B727,2013-01-16 04:11:00,
2013-01-15 21:16:00,4.5,-4.6,31.03,SSE,163,1.0,1.0,65,0.00,,,0.03,0,LWC V2.00 B727,2013-01-16 04:16:00,
2013-01-15 21:21:00,4.8,-4.3,31.03,SSE,163,1.0,2.0,65,0.00,,,0.03,0,LWC V2.00 B727,2013-01-16 04:21:00,
2013-01-15 21:26:00,5.0,-3.8,31.03,SSE,163,0.0,0.0,66,0.00,,,0.03,0,LWC V2.00 B727,2013-01-16 04:26:00,
2013-01-15 21:31:00,5.1,-4.1,31.03,SSE,163,0.0,1.0,65,0.00,,,0.03,0,LWC V2.00 B727,2013-01-16 04:31:00,
2013-01-15 21:36:00,5.0,-4.8,31.03,SSE,163,0.0,0.0,63,0.00,,,0.03,0,LWC V2.00 B727,2013-01-16 04:36:00,
2013-01-15 21:41:00,4.6,-6.2,31.04,SSE,163,0.0,0.0,60,0.00,,,0.03,0,LWC V2.00 B727,2013-01-16 04:41:00,
2013-01-15 21:46:00,4.0,-6.1,31.04,SSE,163,0.0,1.0,62,0.00,,,0.03,0,LWC V2.00 B727,2013-01-16 04:46:00,
2013-01-15 21:51:00,3.5,-7.2,31.04,SSE,163,0.0,0.0,60,0.00,,,0.03,0,LWC V2.00 B727,2013-01-16 04:51:00,
2013-01-15 21:56:00,2.8,-7.2,31.06,SSE,163,0.0,0.0,62,0.00,,,0.03,0,LWC V2.00 B727,2013-01-16 04:56:00,
2013-01-15 22:00:00,2.3,-8.4,31.06,SSE,163,0.0,0.0,60,0.00,,,0.03,0,LWC V2.00 B727,2013-01-16 05:00:00,
2013-01-15 22:01:00,2.2,-8.1,31.06,SSE,163,0.0,0.0,61,0.00,,,0.03,0,LWC V2.00 B727,2013-01-16 05:01:00,
2013-01-15 22:06:00,1.7,-7.3,31.07,SSE,163,0.0,0.0,65,0.00,,,0.03,0,LWC V2.00 B727,2013-01-16 05:06:00,
2013-01-15 22:11:00,1.6,-6.5,31.07,SSE,163,1.0,1.0,68,0.00,,,0.03,0,LWC V2.00 B727,2013-01-16 05:11:00,
2013-01-15 22:16:00,1.7,-5.8,31.06,SSE,164,3.0,4.0,70,0.00,,,0.03,0,LWC V2.00 B727,2013-01-16 05:16:00,
2013-01-15 22:21:00,2.1,-5.1,31.06,South,172,1.0,4.0,71,0.00,,,0.03,0,LWC V2.00 B727,2013-01-16 05:21:00,
2013-01-15 22:26:00,2.4,-5.1,31.06,South,173,2.0,2.0,70,0.00,,,0.03,0,LWC V2.00 B727,2013-01-16 05:26:00,
2013-01-15 22:31:00,2.6,-4.9,31.06,South,172,1.0,2.0,70,0.00,,,0.03,0,LWC V2.00 B727,2013-01-16 05:31:00,
2013-01-15 22:36:00,2.8,-4.7,31.06,SSE,165,0.0,2.0,70,0.00,,,0.03,0,LWC V2.00 B727,2013-01-16 05:36:00,
2013-01-15 22:41:00,3.0,-4.5,31.06,SSE,166,0.0,1.0,70,0.00,,,0.03,0,LWC V2.00 B727,2013-01-16 05:41:00,
2013-01-15 22:46:00,3.2,-4.3,31.07,SSE,166,0.0,2.0,70,0.00,,,0.03,0,LWC V2.00 B727,2013-01-16 05:46:00,
2013-01-15 22:51:00,3.3,-4.2,31.07,SSE,165,0.0,1.0,70,0.00,,,0.03,0,LWC V2.00 B727,2013-01-16 05:51:00,
2013-01-15 22:56:00,3.5,-4.1,31.07,SSE,166,0.0,1.0,70,0.00,,,0.03,0,LWC V2.00 B727,2013-01-16 05:56:00,
2013-01-15 23:01:00,3.6,-4.0,31.08,SSE,165,0.0,1.0,70,0.00,,,0.03,0,LWC V2.00 B727,2013-01-16 06:01:00,
2013-01-15 23:06:00,3.7,-4.2,31.07,SSE,165,0.0,1.0,69,0.00,,,0.03,0,LWC V2.00 B727,2013-01-16 06:06:00,
2013-01-15 23:11:00,3.7,-4.2,31.07,SSE,166,1.0,2.0,69,0.00,,,0.03,0,LWC V2.00 B727,2013-01-16 06:11:00,
2013-01-15 23:16:00,3.7,-4.2,31.08,SSE,166,0.0,1.0,69,0.00,,,0.03,0,LWC V2.00 B727,2013-01-16 06:16:00,
2013-01-15 23:21:00,3.7,-4.2,31.08,SSE,166,0.0,2.0,69,0.00,,,0.03,0,LWC V2.00 B727,2013-01-16 06:21:00,
2013-01-15 23:26:00,3.6,-4.3,31.09,SSE,165,0.0,1.0,69,0.00,,,0.03,0,LWC V2.00 B727,2013-01-16 06:26:00,
2013-01-15 23:31:00,3.7,-4.2,31.08,SSE,167,0.0,2.0,69,0.00,,,0.03,0,LWC V2.00 B727,2013-01-16 06:31:00,
2013-01-15 23:36:00,3.8,-3.8,31.09,SSE,163,1.0,2.0,70,0.00,,,0.03,0,LWC V2.00 B727,2013-01-16 06:36:00,
2013-01-15 23:41:00,4.0,-3.6,31.09,SSE,162,0.0,2.0,70,0.00,,,0.03,0,LWC V2.00 B727,2013-01-16 06:41:00,
2013-01-15 23:46:00,4.1,-3.5,31.08,SSE,161,0.0,0.0,70,0.00,,,0.03,0,LWC V2.00 B727,2013-01-16 06:46:00,
2013-01-15 23:51:00,4.1,-3.5,31.09,SSE,162,0.0,0.0,70,0.00,,,0.03,0,LWC V2.00 B727,2013-01-16 06:51:00,
2013-01-15 23:56:00,4.2,-3.4,31.09,SSE,162,0.0,2.0,70,0.00,,,0.03,0,LWC V2.00 B727,2013-01-16 06:56:00,